Regional Weather Roundup
Issued by NWS

Home | Current Version | Previous Version | Text Only | Print | Product List | Glossary On
Versions: 1 2 3 4 5 6 7 8 9 10 11 12 13 14 15 16 17 18 19 20 21 22 23 24 25 26 27 28 29 30 31 32 33 34 35 36 37 38 39 40 41 42 43 44 45 46 47 48 49 50
000
ASUS43 KDMX 200406
RWRIA

WEATHER ROUNDUP FOR IOWA
NATIONAL WEATHER SERVICE DES MOINES IA
1000 PM CST MON FEB 19 2018

NOTE: "FAIR" INDICATES FEW OR NO CLOUDS BELOW 12,000 FEET WITH NO
SIGNIFICANT WEATHER AND/OR OBSTRUCTIONS TO VISIBILITY.

* - THESE STATIONS ARE NOT NWS STATIONS...THUS NOT UNDER NWS
QUALITY CONTROL.  THEY ALSO DO NOT REPORT WEATHER SUCH
AS PRECIPITATION OR FOG.

IAZ001>003-012>014-020>022-031>034-043>046-200500-
   NORTHWEST IOWA

CITY           SKY/WX    TMP DP  RH WIND       PRES   REMARKS
CARROLL *      CLOUDY    23  23 100 MISG      29.83F
CHEROKEE *     CLOUDY    19  19  98 N6        29.87S FOG     WCI  11
DENISON *      CLOUDY    23  21  93 N6        29.85F WCI  16
LE MARS *      CLOUDY    18  16  93 MISG      29.89R
ORANGE CITY *  CLOUDY    18  18 100 NE3       29.89R
SHELDON *      CLOUDY    16  16 100 MISG      29.85S FOG
SIOUX CITY     CLOUDY    19  16  88 N10       29.90R WCI   7
SPENCER        LGT SNOW  19  16  88 NE10      29.87R FOG     WCI   7
STORM LAKE *   CLOUDY    19  19 100 MISG      29.81F FOG
$$

IAZ055>058-069>071-079>083-090>094-200500-
   SOUTHWEST IOWA

CITY           SKY/WX    TMP DP  RH WIND       PRES   REMARKS
ATLANTIC *     CLOUDY    25  25 100 N10       29.83F WCI  15
AUDUBON *      CLOUDY    23  21  93 CALM      29.82F
CLARINDA *     CLOUDY    27  27 100 N9        29.87R WCI  17
COUNCIL BLFS * CLOUDY    23  23 100 N12       29.83S WCI  12
CRESTON *      CLOUDY    25  25 100 N8        29.84R WCI  16
HARLAN  *      CLOUDY    23  23 100 N9        29.87F WCI  13
LAMONI         CLOUDY    29  27  92 NW10      29.81S FOG     WCI  20
RED OAK *      CLOUDY    25  25 100 N6        29.85R WCI  18
SHENANDOAH *   CLOUDY    25  25 100 N8        29.88R WCI  16
$$

IAZ047>049-059>061-072>074-084-200500-
   CENTRAL IOWA

CITY           SKY/WX    TMP DP  RH WIND       PRES   REMARKS
AMES           CLOUDY    29  27  92 NW12      29.83R FOG     WCI  19
ANKENY *       CLOUDY    28  28 100 NW7       29.85R WCI  21
BOONE *        CLOUDY    27  27 100 MISG      29.81S FOG
CHARITON *     CLOUDY    28  28 100 NW12      29.82S FOG     WCI  18
DES MOINES     FLURRIES  28  26  92 NW10      29.83S WCI  19
GRINNELL*      CLOUDY    31  31  99 W8        29.83R FOG     WCI  24
KNOXVILLE *    CLOUDY    30  30 100 NW8       29.82R FOG     WCI  23
MARSHALLTOWN   CLOUDY    31  31 100 W9        29.79S FOG     WCI  23
NEWTON *       FOG       30  30 100 NW10      29.82S VSB 1/2 WCI  21
PELLA *        CLOUDY    30  30  99 NW7       29.85R FOG     WCI  24
PERRY *        CLOUDY    26  26  99 NW8       29.84S WCI  18
$$

IAZ004>006-015-016-023>025-035-036-200500-
   NORTH CENTRAL IOWA

CITY           SKY/WX    TMP DP  RH WIND       PRES   REMARKS
ALGONA *       CLOUDY    25 N/A N/A N15       29.83R WCI  12
CLARION *      CLOUDY    27  27 100 N8        29.82R WCI  18
ESTHERVILLE    CLOUDY    17  16  95 N15       29.84F FOG     WCI   2
FORT DODGE *   CLOUDY    25  24  96 N9        29.85R WCI  15
MASON CITY     CLOUDY    26  24  92 N15       29.81R WCI  14
FOREST CITY *  CLOUDY    27  27 100 N6        29.81R WCI  20
WEBSTER CITY * CLOUDY    27  27 100 NW10      29.81R FOG     WCI  17
IOWA FALLS *   CLOUDY    31  31  99 N9        29.80S FOG     WCI  23
$$

IAZ007>011-017>019-026>030-037>042-050>054-066-200500-
   NORTHEAST IOWA

CITY           SKY/WX    TMP DP  RH WIND       PRES   REMARKS
CEDAR RAPIDS   CLOUDY    35  34  96 W12       29.79R FOG     WCI  27
CHARLES CITY * CLOUDY    32  32 100 N9        29.79R FOG     WCI  24
CLINTON *      FOG       41  41 100 MISG        N/A  VSB 1/4
DECORAH *      FOG       36  36 100 NE6       29.75R VSB 1   WCI  31
DUBUQUE        FOG       37  35  92 SW8       29.76R VSB 1/4 WCI  31
MONTICELLO *   CLOUDY    37  37 100 W7        29.78R FOG     WCI  32
OELWEIN *      FOG       34  34 100 SW8       29.77R VSB 1/4 WCI  27
WATERLOO       CLOUDY    32  32 100 W7        29.79R FOG     WCI  26
$$

IAZ064-065-067-068-078-200500-
   EAST CENTRAL IOWA

CITY           SKY/WX    TMP DP  RH WIND       PRES   REMARKS
DAVENPORT      RAIN      43  41  93 W7        29.80R FOG
IOWA CITY      CLOUDY    37  32  82 W8        29.82R HAZE    WCI  31
MT. PLEASANT * HVY RAIN  36  36 100 NW9       29.82R WCI  29
MUSCATINE *    RAIN      39  37  93 W5G12     29.83R
QUAD CITIES    LGT RAIN  46  45  96 W12       29.78R
$$

IAZ062-063-075>077-085>089-095>099-200500-
   SOUTHEAST IOWA

CITY           SKY/WX    TMP DP  RH WIND       PRES   REMARKS
BURLINGTON     RAIN      42  40  92 NW6       29.80R FOG
FAIRFIELD *    CLOUDY    36  34  93 W9        29.81S FOG     WCI  29
FORT MADISON * RAIN      43  43 100 NW10      29.82R
KEOKUK *       HVY RAIN  46  46 100 NW6       29.80R
OSKALOOSA *    CLOUDY    31  31  99 NW12      29.83R FOG     WCI  22
OTTUMWA        CLOUDY    32  31  96 NW7       29.81S FOG     WCI  26
WASHINGTON *   CLOUDY    36  36 100 W10       29.82R FOG     WCI  28
$$

ABBREVIATIONS USED IN REMARKS
   TC - TEMPERATURES IN CELSIUS
  WCI - WIND CHILL INDEX
   HX - HEAT INDEX
  VSB - VISIBILITY
$$





USA.gov is the U.S. government's official web portal to all federal, state and local government web resources and services.